Location: Newark
(33.9035°S, 18.4112°E)
Time: 08:04:12
(UTC+00:00)

STARLINK-1081 - Pass Details

Date: 22 January 2020
Orbit: 348 x 351 km, 53.0° (Epoch: 23 February)

Event Time Altitude Azimuth Distance (km) Brightness Sun altitude
Exits shadow 01:47:32 26° 95° (E) 740 4.7 -22.8°
Drops below altitude 10° 01:49:14 10° 119° (ESE) 1,332 6.6 -22.5°
Enters shadow 02:42:44 -73° 315° (NW) 12,551 10.5 -14.2°
